This demonstration page uses our WeatherBlox Daily Observations layout. Learn more.

Left ArrowRight Arrow

Hourly Observations for September 19, 2015

Temp ( °F °C ) Dew Point ( °F °C ) Humidity (%) Winds ( mph kmh ) Pressure ( in mb ) Visibility ( mi km ) Precip ( " mm )
12:03 am 00:03 Mostly Cloudy 54 12 46 8 77 77 NNW 10 17 30.09 1019 10 16 0.00 0.00
12:53 am 00:53 Cloudy 54 12.2 48 8.9 80 80 N 12 19 30.10 1019 10 16 0.00 0.00
1:53 am 01:53 Cloudy 55 12.8 50 10 83 83 N 12 19 30.11 1020 10 16 0.00 0.00
2:49 am 02:49 Cloudy with Mist and Fog 54 12 52 11 94 94 N 10 17 30.09 1019 5 8 0.00 0.00
2:53 am 02:53 Cloudy 54 12.2 52 11.1 93 93 NNE 10 17 30.12 1020 7 11 0.00 0.00
3:06 am 03:06 Cloudy 55 12.8 51 10.6 87 87 N 10 17 30.12 1020 10 16 0.00 0.00
3:49 am 03:49 Cloudy 54 12 48 9 82 82 N 10 17 30.12 1020 10 16 0.00 0.00
3:53 am 03:53 Cloudy 54 12.2 49 9.4 83 83 N 10 17 30.12 1020 10 16 0.00 0.00
4:21 am 04:21 Mostly Cloudy 53 11.7 48 8.9 83 83 N 9 15 30.12 1020 10 16 0.00 0.00
4:53 am 04:53 Mostly Clear 52 11.1 48 8.9 86 86 N 7 11 30.13 1020 10 16 0.00 0.00
5:42 am 05:42 Mostly Cloudy 52 11 48 9 88 88 N 3 6 30.15 1021 10 16 0.00 0.00
5:53 am 05:53 Cloudy 52 11.1 49 9.4 89 89 N 3 6 30.15 1021 10 16 0.00 0.00
6:40 am 06:40 Cloudy 54 12 48 9 82 82 NE 5 7 30.15 1021 10 16 0.00 0.00
6:53 am 06:53 Cloudy 53 11.7 48 8.9 83 83 NNE 6 9 30.17 1022 10 16 0.00 0.00
7:04 am 07:04 Cloudy 54 12 48 9 82 82 NNE 6 9 30.15 1021 10 16 0.00 0.00
7:37 am 07:37 Cloudy 53 11.7 49 9.4 86 86 NNE 3 6 30.18 1022 10 16 0.00 0.00
7:53 am 07:53 Cloudy 53 11.7 48 8.9 83 83 N 8 13 30.19 1022 10 16 0.00 0.00
8:53 am 08:53 Cloudy 52 11.1 47 8.3 83 83 NNW 5 7 30.21 1023 10 16 0.00 0.00
9:53 am 09:53 Cloudy 53 11.7 48 8.9 83 83 N 5 7 30.21 1023 10 16 0.00 0.00
10:30 am 10:30 Cloudy 54 12 46 8 77 77 VRB 6 9 30.18 1022 10 16 0.00 0.00
10:53 am 10:53 Cloudy 54 12.2 48 8.9 80 80 Calm 30.22 1023 10 16 0.00 0.00
11:53 am 11:53 Cloudy 56 13.3 48 8.9 75 75 SE 3 6 30.21 1023 10 16 0.00 0.00
12:53 pm 12:53 Cloudy 57 13.9 48 8.9 72 72 Calm 30.19 1022 10 16 0.00 0.00
1:50 pm 13:50 Partly Cloudy 63 17 48 9 59 59 VRB 3 6 30.12 1020 10 16 0.00 0.00
1:53 pm 13:53 Mostly Cloudy 61 16.1 49 9.4 65 65 Calm 30.16 1021 10 16 0.00 0.00
2:16 pm 14:16 Mostly Cloudy 62 16.7 49 9.4 62 62 VRB 3 6 30.09 1019 10 16 0.00 0.00
2:35 pm 14:35 Partly Cloudy 65 18.3 49 9.4 56 56 ESE 5 7 30.09 1019 10 16 0.00 0.00
2:53 pm 14:53 Mostly Sunny 65 18.3 49 9.4 56 56 SSE 8 13 30.12 1020 10 16 0.00 0.00
3:53 pm 15:53 Partly Cloudy 67 19.4 48 8.9 51 51 S 7 11 30.09 1019 10 16 0.00 0.00
4:53 pm 16:53 Mostly Sunny 69 20.6 48 8.9 47 47 S 9 15 30.06 1018 10 16 0.00 0.00
5:53 pm 17:53 Partly Cloudy 69 20.6 47 8.3 45 45 S 9 15 30.05 1018 10 16 0.00 0.00
6:53 pm 18:53 Partly Cloudy 68 20 47 8.3 47 47 S 8 13 30.04 1017 10 16 0.00 0.00
7:53 pm 19:53 Mostly Cloudy 65 18.3 47 8.3 52 52 S 9 15 30.04 1017 10 16 0.00 0.00
8:53 pm 20:53 Mostly Cloudy 63 17.2 48 8.9 58 58 SSE 6 9 30.07 1018 10 16 0.00 0.00
9:53 pm 21:53 Clear 61 16.1 48 8.9 63 63 S 8 13 30.08 1019 10 16 0.00 0.00
10:53 pm 22:53 Clear 59 15 48 8.9 67 67 SSE 9 15 30.07 1018 10 16 0.00 0.00
11:53 pm 23:53 Clear 58 14.4 48 8.9 70 70 SSE 9 15 30.05 1018 10 16 0.00 0.00

Powered by AerisWeather